Torna al catalogo

HAWK-6A

AttivoMilitareVLEO
NORAD 55327·PAYLOAD·🇺🇸 United States

Lanciato Jan 24, 2023 da Wallops Flight Facility

Loading…

Prossimi Passaggi (prossime 24 ore)

TLE

AggiornatoSource: Space-Track

Epoca: Sep 14, 2026, 03:34 UTC

1 55327U 23011D   26257.14926506  .00003947  00000-0  16946-3 0  9996
2 55327  40.4974 191.3703 0003955 278.4633  81.5728 15.23598441201423

Traccia HAWK-6A in tempo reale con AllMySat

Download on the App Store